Point Mugu, CA

7:50 AM PDT on April 25, 2017 (GMT -0700)
Point Mugu Naval Air Station

Weather History for KNTD - September, 2011

Change the Weather History Date:

Sunday, September 11, 2011

  Actual Average Record
Temperature  
Mean Temperature 64 °F -  
Max Temperature 72 °F 71 °F 88 °F (2015)
Min Temperature 57 °F 57 °F 51 °F (1999)
Growing Degree Days 14 (Base 50)    
Moisture  
Dew Point 56 °F    
Average Humidity 71    
Maximum Humidity 81    
Minimum Humidity 59    
Precipitation  
Precipitation 0.00 in - - ()
Sea Level Pressure  
Sea Level Pressure 29.97 in    
Wind  
Wind Speed 6 mph (SSE)    
Max Wind Speed 12 mph    
Max Gust Speed -    
Visibility 8 miles    
Events      
Averages and records for this station are not official NWS values.
T = Trace of Precipitation, MM = Missing Value Source: NWS Daily Summary

Daily Weather History Graph

Daily Weather History Graph

Search for Another Location

Airport or City:

Trip Planner

Search our weather history database for the weather conditions in past years. The results will help you decide how hot, cold, wet, or windy it might be!

Date:

Astronomy

Sep. 11, 2011 Rise Set
Actual Time 6:36 AM PDT 7:08 PM PDT
Civil Twilight 6:11 AM PDT 7:34 PM PDT
Nautical Twilight 5:41 AM PDT 8:03 PM PDT
Astronomical Twilight 5:11 AM PDT 8:33 PM PDT
Moon 6:35 PM PDT (9/11) 5:59 AM PDT (9/11)
Length of Visible Light 13h 22m
Length of Day
12h 32m
Full, 100% of the Moon is Illuminated
Sep 11
Full
Sep 12
Full
Sep 20
Last Quarter
Sep 27
New
Oct 3
First Quarter

Hourly Weather History & Observations

Time (PDT) Temp. Dew Point Humidity Pressure Visibility Wind Dir Wind Speed Gust Speed Precip Events Conditions
12:00 AM - - N/A% - - North - - N/A   Unknown
12:35 AM 62.6 °F - N/A% 29.91 in 10.0 mi SE 6.9 mph - N/A   Scattered Clouds
12:54 AM 62.1 °F - N/A% 29.92 in 10.0 mi SE 3.5 mph - N/A   Mostly Cloudy
1:13 AM 60.8 °F - N/A% 29.91 in 10.0 mi SE 5.8 mph - N/A   Scattered Clouds
1:54 AM 62.1 °F - N/A% 29.93 in 10.0 mi East 3.5 mph - N/A   Mostly Cloudy
2:11 AM - - N/A% - - North - - N/A   Unknown
2:54 AM 63.0 °F - N/A% 29.93 in 10.0 mi SE 4.6 mph - N/A   Overcast
3:00 AM - - N/A% - - North - - N/A   Unknown
3:54 AM 64.0 °F - N/A% 29.93 in 10.0 mi ESE 10.4 mph - N/A   Overcast
4:54 AM 64.0 °F - N/A% 29.94 in 10.0 mi ESE 11.5 mph - N/A   Overcast
5:54 AM 64.0 °F - N/A% 29.96 in 10.0 mi SE 6.9 mph - N/A   Overcast
6:05 AM 64.4 °F 53.6 °F 68% 29.96 in 7.0 mi ESE 6.9 mph - N/A   Overcast
6:54 AM 64.0 °F 56.1 °F 75% 29.97 in 7.0 mi SE 5.8 mph - N/A   Overcast
7:54 AM 64.0 °F 58.1 °F 81% 29.98 in 7.0 mi SSE 6.9 mph - N/A   Overcast
8:54 AM 64.9 °F 57.9 °F 78% 30.00 in 7.0 mi SE 10.4 mph - N/A   Overcast
9:54 AM 64.9 °F 58.3 °F 79% 30.01 in 7.0 mi SSE 8.1 mph - N/A   Overcast
10:54 AM 66.0 °F 57.9 °F 75% 30.02 in 7.0 mi SSE 9.2 mph - N/A   Overcast
11:54 AM 69.1 °F 57.9 °F 68% 30.01 in 7.0 mi South 8.1 mph - N/A   Mostly Cloudy
12:33 PM 71.6 °F 57.2 °F 60% 30.00 in 7.0 mi South 10.4 mph - N/A   Mostly Cloudy
12:54 PM 71.1 °F 58.1 °F 63% 30.01 in 7.0 mi SSW 10.4 mph - N/A   Scattered Clouds
1:54 PM 72.0 °F 57.0 °F 59% 29.99 in 7.0 mi SW 10.4 mph - N/A   Scattered Clouds
2:54 PM 70.0 °F 56.8 °F 63% 29.98 in 7.0 mi SW 9.2 mph - N/A   Scattered Clouds
3:45 PM - - N/A% - - North - - N/A   Unknown
3:54 PM 70.0 °F 57.0 °F 63% 29.96 in 7.0 mi SW 9.2 mph - N/A   Partly Cloudy
4:00 PM - - N/A% - - North - - N/A   Unknown
4:54 PM 69.1 °F - N/A% 29.96 in 7.0 mi WSW 9.2 mph - N/A   Partly Cloudy
5:54 PM 69.1 °F 56.3 °F 64% 29.95 in 7.0 mi West 6.9 mph - N/A   Partly Cloudy
6:54 PM 64.0 °F 53.6 °F 69% 29.96 in 10.0 mi West 3.5 mph - N/A   Scattered Clouds
7:00 PM - - N/A% - - North - - N/A   Unknown
7:54 PM 62.1 °F 53.2 °F 73% 29.97 in 7.0 mi Calm Calm - N/A   Clear
8:54 PM 60.1 °F 52.7 °F 77% 29.99 in 7.0 mi Calm Calm - N/A   Clear
9:54 PM 59.0 °F 52.2 °F 78% 30.00 in 7.0 mi Calm Calm - N/A   Clear
10:54 PM 57.0 °F 50.0 °F 77% 30.01 in 7.0 mi Calm Calm - N/A   Clear
11:54 PM 57.0 °F - N/A% 30.01 in 10.0 mi Calm Calm - N/A   Clear